Wind_Speed
20 22 21 22 23 22 24 22 23 21 19 20 21 23 21 21 21 18 19 18 16 16 17 16 14 15 14 13 15 16 16 18 16 15 13 12 14 15 17 18 20 24 24
20 19 17 22 22 22 23 21 21 19 19 17 19 21 21 20 19 18 19 17 16 16 15 15 15 15 13 13 13 13 14 16 16 15 12 12 12 14 16 17 18 19 22
18 18 16 18 21 21 20 20 19 17 17 17 16 19 19 17 18 19 19 17 15 15 14 13 14 14 13 12 13 11 12 11 14 15 12 13 13 14 15 14 15 14 15
15 16 18 17 19 20 17 18 16 15 16 16 16 17 16 14 18 19 17 17 14 14 13 13 13 13 12 11 11 10 10 11 12 12 12 13 12 11 11 12 10 10 10
14 16 18 18 18 20 19 20 15 13 13 14 17 18 14 15 16 18 16 15 13 13 12 12 13 12 11 10 9 10 9 9 8 8 10 10 10 11 10 10 9 8 7
13 14 15 16 16 17 18 17 16 13 13 16 16 14 13 13 15 15 15 14 13 12 13 12 12 12 12 9 8 7 8 7 7 4 6 7 7 8 10 11 10 8 6
10 11 12 13 12 13 16 15 14 12 13 14 14 13 11 11 12 13 13 12 11 12 12 11 10 11 12 12 9 9 8 8 8 5 3 4 4 5 7 9 8 8 6
10 9 10 12 11 12 14 15 13 13 13 12 12 11 10 9 10 11 10 9 9 10 11 11 10 11 15 12 8 9 9 9 9 7 4 1 1 1 2 4 5 6 6
11 10 10 12 13 13 13 14 12 13 11 10 10 10 8 8 9 8 8 8 7 8 8 10 9 12 16 11 8 8 9 9 9 8 4 1 3 3 5 3 2 4 6
10 9 9 9 12 12 12 12 11 10 10 9 9 9 7 8 7 5 4 5 5 5 7 7 9 9 10 11 8 9 9 10 9 8 5 3 1 2 6 5 2 1 5
7 8 9 9 9 9 10 10 9 7 6 7 6 7 7 7 5 4 4 3 2 2 2 3 7 8 10 11 7 6 5 10 9 10 8 6 8 2 2 5 3 2 3
6 7 7 7 7 7 6 5 5 4 5 7 7 5 6 7 7 5 3 2 1 1 2 4 6 5 8 10 5 4 2 6 9 7 8 7 10 4 5 7 4 3 4
5 6 7 6 5 4 4 4 5 4 4 6 6 6 5 7 6 5 4 3 1 1 2 3 3 4 5 9 8 4 1 3 9 7 7 10 9 9 8 3 8 3 4
4 5 6 7 7 6 6 6 7 7 5 5 5 5 4 4 5 4 2 2 1 1 2 3 2 4 6 5 1 2 3 4 4 3 4 7 9 8 11 6 5 6 4
5 5 5 5 6 7 8 9 8 8 8 7 7 7 5 5 6 5 4 5 5 6 5 5 6 3 3 4 3 2 2 4 5 5 6 6 7 4 3 5 7 6 3
7 6 5 6 7 8 9 9 6 6 7 8 8 7 6 7 7 7 7 7 6 6 5 5 5 5 5 4 4 3 1 4 5 5 5 6 3 4 3 5 3 8 4
8 9 7 7 8 8 8 8 7 5 5 6 6 6 7 8 8 5 5 5 6 6 6 5 5 6 6 6 6 5 3 4 5 4 4 6 5 6 5 1 7 11 4
6 8 8 7 8 7 8 8 8 7 5 5 5 7 9 10 9 9 8 7 5 7 7 7 7 8 8 8 7 6 6 6 5 4 4 4 3 2 6 4 1 1 9
5 5 7 8 9 8 8 8 8 7 8 8 9 9 10 10 11 11 11 12 9 9 8 8 7 7 7 8 7 7 9 8 6 2 2 3 2 2 2 2 2 5 8
2 5 6 7 7 10 11 9 8 10 10 10 8 7 7 6 7 8 10 8 7 7 6 6 6 6 5 5 6 8 9 9 6 3 2 2 2 1 0 2 4 6 7
5 1 4 7 8 9 9 9 10 11 10 8 5 5 2 5 7 6 5 6 5 5 5 6 7 6 6 5 4 6 7 7 5 5 5 3 3 2 2 4 5 7 9
4 3 1 6 9 10 9 9 9 8 6 5 5 3 2 8 11 9 8 9 9 7 5 6 8 7 6 5 5 5 6 6 7 7 8 7 6 7 7 7 7 8 10
4 4 4 2 1 5 5 5 6 6 5 4 4 5 8 12 13 12 10 11 11 10 9 8 9 8 7 6 5 5 5 7 8 7 8 10 10 10 11 10 10 10 10
4 4 6 4 2 4 4 3 3 5 6 6 7 8 11 12 12 13 12 11 11 10 12 11 9 7 10 8 7 7 7 8 8 9 10 11 12 11 11 11 11 11 12
3 5 5 2 2 4 6 7 8 9 8 9 9 10 11 13 12 13 11 11 13 13 14 11 9 10 12 8 8 8 8 9 9 10 10 10 11 12 13 13 14 14 14
6 4 4 3 3 6 7 6 10 11 11 12 12 12 13 15 14 14 13 11 11 13 13 13 9 10 11 6 4 5 7 9 11 13 14 16 17 16 16 16 17 17 17
Wind_Direction
99 103 114 115 115 116 109 105 105 104 108 103 103 99 97 93 88 88 81 75 70 67 64 64 64 64 60 62 60 62 55 62 64 68 65 62 66 66 66 67 73 79 76
113 117 124 119 120 118 116 111 105 106 104 102 98 97 94 88 87 88 82 78 68 64 62 60 60 60 59 58 63 62 51 59 58 61 66 59 65 58 65 65 63 73 84
119 114 116 122 124 120 116 116 112 112 110 103 97 94 89 88 92 86 84 84 80 72 66 62 62 58 52 52 60 57 57 55 54 55 60 58 54 60 57 61 63 66 76
118 123 121 122 124 119 119 116 121 118 112 111 102 94 84 89 90 88 85 82 81 80 74 64 64 61 52 50 50 49 44 45 56 54 49 63 66 65 75 84 86 86 90
120 123 126 131 130 127 131 124 109 112 112 110 102 95 101 95 90 91 88 82 79 78 73 69 66 61 55 48 48 43 39 35 49 53 59 57 69 69 75 81 85 89 100
121 121 122 127 128 125 118 110 119 126 121 104 98 104 101 95 93 93 91 89 84 80 74 63 58 52 43 37 41 35 39 32 22 84 54 61 69 78 77 80 85 92 102
120 124 130 123 119 117 111 118 121 119 110 109 117 110 103 99 94 94 90 89 85 79 76 73 64 52 30 25 28 34 29 43 28 32 90 60 57 69 79 79 86 88 104
119 124 127 122 120 119 119 121 124 126 118 120 118 113 111 107 96 90 81 83 86 85 78 63 69 39 29 33 43 44 44 42 38 40 35 160 121 101 78 103 94 93 88
116 127 129 128 123 123 122 122 127 118 118 118 118 116 121 113 99 85 80 79 77 78 68 54 46 32 34 47 62 48 48 53 35 50 55 64 257 188 175 152 125 107 94
121 125 127 126 127 127 125 122 114 117 118 134 130 139 149 133 127 111 80 73 62 53 48 36 25 29 33 44 64 67 56 59 43 37 45 40 322 68 180 149 161 132 103
135 140 140 131 129 129 128 121 119 115 141 137 148 159 171 151 156 152 133 104 74 56 47 18 6 19 40 39 37 22 36 40 37 36 17 350 332 211 151 168 155 181 95
152 159 168 157 152 141 127 121 123 168 159 149 144 160 158 167 179 180 157 146 176 267 321 339 339 2 15 16 32 3 52 23 20 8 8 349 294 311 201 158 138 146 119
164 184 190 192 186 163 169 181 184 188 170 140 147 164 172 163 166 159 132 146 137 278 274 318 329 346 346 351 27 15 50 297 324 341 352 344 333 307 291 322 93 123 113
175 182 196 206 218 202 197 217 206 195 183 173 170 179 179 186 176 178 187 207 227 342 275 345 338 336 330 323 341 0 56 49 341 329 335 336 3 355 354 7 247 98 157
151 168 180 191 213 226 214 217 221 217 210 200 210 218 220 221 224 220 227 249 260 273 285 304 303 307 304 309 285 138 54 50 26 358 4 343 1 70 33 23 358 287 91
165 151 174 187 197 214 222 215 222 211 221 210 210 223 224 234 249 248 252 257 263 274 294 293 282 279 289 279 245 271 356 4 10 6 13 33 61 35 336 282 235 302 351
165 163 170 195 209 220 227 230 216 210 212 203 197 216 229 239 241 265 248 251 260 278 288 293 282 281 273 255 252 245 302 316 338 340 358 19 96 93 28 316 266 281 259
148 174 179 200 213 215 219 222 218 215 217 223 228 228 233 239 247 259 250 255 276 295 294 293 290 290 282 261 247 239 257 276 291 335 340 36 38 47 12 30 278 289 259
124 154 172 190 201 198 206 218 221 213 222 231 238 244 247 252 256 266 271 265 281 285 284 285 290 290 278 264 243 230 238 262 287 308 281 313 323 53 48 1 292 302 279
105 168 204 194 189 192 197 203 204 212 225 237 246 257 271 283 287 278 273 277 272 279 285 299 308 304 302 274 245 250 256 263 266 262 231 212 223 215 272 303 321 330 328
25 66 196 207 209 208 206 207 208 214 222 236 243 245 290 359 351 309 292 298 302 301 301 305 308 315 320 324 284 252 251 261 252 242 257 252 272 299 337 319 314 326 330
340 348 21 220 213 208 208 204 211 224 231 234 250 239 278 328 326 316 315 311 301 295 289 294 294 302 313 315 301 274 262 254 258 254 255 268 285 300 310 315 312 313 317
305 298 300 347 295 247 244 225 224 226 233 251 250 277 299 318 314 311 308 308 313 314 315 304 292 299 307 299 287 270 264 266 269 273 274 281 289 295 301 309 312 308 308
301 266 262 261 286 313 307 279 246 253 259 271 274 294 301 306 304 303 302 310 312 316 311 304 305 327 321 295 266 259 255 269 284 290 295 296 297 296 298 300 304 311 311
292 300 281 296 22 342 310 292 273 262 272 277 290 294 298 302 291 284 286 299 304 309 310 309 320 315 331 305 251 251 258 268 278 285 292 293 295 300 302 303 297 300 307
258 274 268 291 41 25 356 306 276 276 280 286 290 290 287 277 280 279 272 280 297 303 305 310 320 319 343 352 235 268 268 280 294 299 303 305 304 302 299 298 298 299 297
Height
5894 5896 5897 5898 5899 5901 5901 5904 5904 5906 5909 5908 5908 5907 5907 5907 5907 5909 5909 5909 5909 5908 5907 5907 5906 5905 5903 5903 5903 5902 5901 5900 5899 5897 5897 5895 5894 5894 5893 5893 5891 5890 5889
5895 5898 5901 5899 5902 5903 5904 5906 5907 5909 5909 5911 5910 5910 5909 5909 5910 5912 5911 5911 5911 5910 5909 5909 5909 5907 5906 5905 5905 5904 5903 5901 5901 5901 5899 5897 5895 5896 5896 5896 5896 5895 5895
5898 5899 5902 5903 5905 5905 5905 5907 5909 5911 5913 5912 5912 5911 5910 5913 5914 5913 5912 5913 5914 5913 5912 5911 5911 5909 5908 5907 5907 5906 5906 5904 5904 5903 5900 5901 5900 5899 5899 5899 5899 5899 5899
5902 5903 5903 5905 5907 5906 5909 5910 5912 5914 5913 5913 5913 5914 5915 5916 5915 5914 5915 5915 5916 5916 5915 5914 5913 5912 5910 5908 5908 5908 5907 5906 5905 5904 5903 5904 5903 5901 5900 5899 5900 5901 5902
5907 5908 5908 5910 5910 5910 5913 5911 5913 5915 5915 5915 5914 5914 5917 5917 5917 5916 5917 5918 5918 5918 5917 5916 5915 5914 5912 5910 5909 5909 5908 5907 5907 5907 5906 5906 5905 5905 5903 5902 5903 5905 5906
5910 5910 5911 5913 5914 5914 5913 5912 5915 5918 5917 5915 5917 5919 5919 5918 5918 5919 5919 5920 5920 5920 5918 5917 5916 5916 5914 5912 5910 5910 5910 5908 5907 5907 5907 5907 5907 5905 5906 5905 5906 5906 5906
5911 5911 5913 5913 5915 5914 5913 5917 5918 5918 5917 5917 5920 5921 5921 5920 5920 5922 5921 5922 5922 5921 5920 5919 5917 5917 5916 5914 5912 5912 5910 5909 5908 5907 5908 5908 5908 5907 5907 5907 5906 5907 5907
5913 5913 5914 5914 5916 5916 5916 5919 5920 5920 5919 5921 5922 5922 5923 5924 5922 5923 5924 5923 5923 5923 5921 5920 5920 5918 5917 5914 5913 5912 5911 5910 5909 5909 5908 5908 5908 5908 5908 5907 5907 5907 5907
5915 5916 5916 5917 5918 5919 5921 5922 5922 5921 5922 5924 5924 5924 5926 5926 5925 5925 5925 5925 5925 5924 5923 5922 5921 5920 5918 5916 5914 5913 5913 5912 5910 5910 5909 5908 5908 5907 5907 5908 5908 5907 5908
5916 5918 5919 5920 5921 5922 5923 5924 5923 5924 5924 5925 5925 5925 5927 5927 5926 5926 5926 5925 5925 5925 5924 5923 5922 5921 5920 5918 5916 5915 5914 5914 5911 5910 5909 5907 5907 5907 5907 5908 5908 5908 5908
5919 5920 5922 5922 5923 5924 5925 5925 5925 5926 5927 5926 5927 5927 5927 5927 5927 5927 5926 5926 5926 5925 5925 5924 5923 5922 5921 5919 5917 5916 5915 5914 5912 5911 5910 5908 5906 5905 5906 5906 5908 5907 5909
5919 5921 5922 5924 5925 5925 5926 5926 5926 5928 5927 5927 5927 5927 5927 5926 5927 5927 5926 5926 5927 5926 5926 5925 5925 5923 5921 5919 5918 5916 5916 5915 5913 5912 5911 5908 5904 5903 5906 5904 5908 5908 5908
5919 5922 5923 5924 5925 5926 5927 5927 5927 5927 5928 5928 5927 5928 5927 5926 5926 5926 5926 5927 5926 5925 5925 5925 5924 5923 5921 5920 5919 5917 5916 5916 5914 5913 5912 5909 5906 5905 5907 5908 5909 5909 5909
5920 5922 5923 5924 5926 5926 5926 5927 5927 5927 5928 5927 5927 5927 5927 5927 5927 5926 5926 5927 5927 5926 5925 5925 5923 5923 5922 5920 5919 5918 5917 5916 5915 5913 5912 5909 5908 5908 5908 5908 5910 5909 5909
5919 5921 5922 5923 5924 5925 5925 5926 5927 5927 5927 5926 5927 5927 5927 5928 5927 5926 5927 5927 5927 5925 5925 5924 5924 5923 5923 5921 5919 5918 5917 5917 5916 5914 5912 5910 5908 5909 5909 5909 5909 5910 5909
5918 5919 5921 5922 5923 5924 5924 5925 5926 5926 5926 5926 5926 5927 5927 5928 5927 5927 5926 5927 5926 5925 5924 5924 5923 5923 5922 5920 5919 5918 5917 5916 5916 5915 5913 5911 5910 5909 5909 5910 5909 5910 5911
5917 5918 5920 5921 5922 5923 5924 5924 5926 5926 5926 5926 5926 5927 5927 5927 5927 5927 5926 5925 5925 5925 5924 5923 5922 5922 5921 5919 5919 5918 5917 5917 5916 5916 5914 5912 5910 5910 5909 5908 5909 5905 5910
5916 5917 5919 5920 5921 5922 5923 5923 5925 5926 5926 5926 5926 5926 5926 5925 5926 5926 5925 5924 5924 5924 5923 5922 5922 5921 5920 5919 5918 5918 5917 5916 5916 5916 5914 5913 5913 5912 5910 5909 5908 5908 5908
5918 5918 5918 5919 5919 5920 5921 5923 5924 5924 5924 5924 5924 5925 5925 5924 5925 5924 5923 5922 5921 5921 5921 5921 5920 5920 5919 5918 5917 5917 5916 5916 5916 5915 5914 5913 5913 5912 5912 5911 5910 5909 5907
5919 5918 5919 5919 5919 5919 5920 5921 5922 5922 5922 5922 5922 5922 5923 5924 5923 5923 5922 5921 5919 5919 5919 5919 5918 5918 5918 5916 5916 5916 5916 5916 5916 5916 5914 5914 5913 5912 5912 5911 5911 5909 5907
5922 5920 5919 5918 5919 5919 5919 5920 5921 5921 5921 5922 5922 5922 5923 5925 5925 5924 5922 5921 5919 5918 5918 5917 5917 5917 5916 5916 5915 5915 5915 5915 5915 5915 5915 5915 5914 5913 5912 5911 5911 5910 5908
5922 5922 5921 5919 5919 5919 5919 5919 5920 5921 5922 5923 5924 5924 5924 5925 5925 5924 5923 5922 5920 5918 5917 5916 5917 5916 5916 5915 5915 5915 5915 5915 5914 5915 5915 5914 5914 5913 5912 5912 5910 5909 5907
5922 5922 5922 5921 5920 5920 5921 5922 5922 5923 5924 5924 5924 5924 5925 5925 5924 5923 5922 5922 5921 5920 5918 5917 5916 5916 5915 5915 5914 5915 5915 5914 5913 5913 5913 5913 5912 5911 5910 5910 5909 5907 5906
5922 5922 5922 5922 5921 5922 5922 5923 5924 5924 5924 5924 5923 5923 5922 5922 5922 5921 5921 5920 5919 5919 5918 5918 5916 5914 5913 5913 5913 5913 5913 5913 5913 5913 5912 5912 5911 5910 5909 5908 5907 5906 5904
5922 5922 5922 5922 5921 5921 5921 5921 5921 5922 5923 5922 5922 5921 5920 5920 5918 5917 5916 5917 5917 5917 5917 5916 5915 5914 5911 5910 5911 5912 5913 5913 5912 5911 5911 5910 5910 5909 5908 5907 5906 5905 5903
5921 5921 5922 5922 5920 5920 5919 5918 5918 5919 5919 5919 5919 5918 5917 5916 5914 5913 5912 5912 5913 5915 5915 5914 5913 5913 5911 5909 5909 5911 5911 5912 5911 5910 5909 5908 5908 5907 5905 5904 5902 5901 5900